www.pogodaiklimat.ru

Погода и климат >> Архив погоды >> Австралия >> Западная Австралия >> Роборн аэропорт


ПОГОДА в Роборн аэропорту

  • Прогноз погоды в Роборн аэропорту
  • Монитор погоды в Роборн аэропорту

АРХИВ ПОГОДЫ в Роборн аэропорту

Время (UTC), дата Ветер
(напр.,м/с)
 
Видим.   Явления Облачность Т
(С)
Тd
(С)
f
(%)
Тe
(С)
Тes
(С)
Комфортность P
(гПа)
Po
(гПа)
Тmin
(С)
Tmax
(С)
R
(мм)
R24
(мм)
S
(см)
13 12.08 ЮВ 2 н/о н/о +19.7 +10.4 55 +21 +21 комфорт 1018.2 1016.9 +32.2
15 12.08 Ю 2 н/о н/о +20.2 +9.7 51 +22 +22 комфорт 1017.9 1016.6
16 12.08 ЮЗ 3 н/о н/о +20.4 +9.3 49 +22 +22 комфорт 1017.7 1016.4
18 12.08 штиль 0 н/о н/о +20.8 +8.8 46 +22 +22 комфорт 1017.0 1015.7
19 12.08 ЮВ 3 н/о н/о +20.6 +7.6 43 +22 +22 комфорт 1016.5 1015.2
21 12.08 В 4 н/о н/о +22.1 +3.3 29 +22 +22 комфорт 1017.1 1015.8
22 12.08 В 5 н/о н/о +21.9 +2.6 28 +22 +22 комфорт 1017.4 1016.1
00 13.08 В 4 н/о н/о +22.7 +3.3 28 +23 +23 комфорт 1018.5 1017.2
01 13.08 В 6 н/о н/о +25.9 +3.8 24 +25 +25 комфорт 1018.8 1017.5 +19.4
03 13.08 СВ 10 н/о н/о +27.6 +3.3 21 +26 +26 жарко 1018.4 1017.1
04 13.08 СВ 11 н/о н/о +29.0 +3.1 19 +27 +27 жарко 1017.6 1016.3
09 13.08 СВ 8 н/о н/о +24.8 +12.7 47 +27 +27 жарко 1016.4 1015.1
10 13.08 СВ 5 н/о н/о +22.8 +14.9 61 +27 +27 душно 1016.7 1015.4
12 13.08 СВ 1 н/о н/о +19.7 +13.6 68 +23 +23 комфорт 1017.8 1016.5
13 13.08 штиль 0 н/о н/о +20.3 +14.9 71 +23 +23 комфорт 1018.0 1016.7 +30.4
15 13.08 СВ 1 н/о н/о +21.5 +17.3 77 +26 +26 душно 1017.9 1016.6
16 13.08 Ю 2 н/о н/о +20.5 +15.1 71 +24 +24 комфорт 1017.6 1016.3
18 13.08 штиль 0 н/о н/о +19.9 +14.5 71 +22 +22 комфорт 1017.0 1015.7
19 13.08 ЮЗ 1 н/о н/о +21.1 +16.9 77 +25 +25 комфорт 1016.6 1015.3
21 13.08 штиль 0 н/о н/о +19.3 +15.4 78 +21 +21 комфорт 1016.7 1015.4
22 13.08 штиль 0 н/о н/о +18.3 +13.8 75 +19 +19 1017.1 1015.8
00 14.08 СВ 2 н/о н/о +22.1 +18.5 80 +27 +27 душно 1017.8 1016.5
01 14.08 В 1 н/о н/о +24.6 +19.9 75 +30 +30 очень
душно
1018.0 1016.7 +17.8
03 14.08 З 6 н/о н/о +28.2 +17.7 53 +33 +33 очень
душно
1017.6 1016.3
04 14.08 СЗ 6 н/о н/о +28.4 +17.0 50 +32 +32 душно 1017.1 1015.8
06 14.08 СЗ 6 н/о н/о +27.6 +18.9 59 +33 +33 очень
душно
1016.0 1014.7
07 14.08 З 6 н/о н/о +27.8 +17.0 52 +32 +32 душно 1015.7 1014.4
09 14.08 СЗ 5 н/о н/о +26.9 +16.5 53 +30 +30 душно 1015.5 1014.2
10 14.08 СЗ 5 н/о н/о +25.2 +17.1 61 +29 +29 душно 1016.0 1014.7
12 14.08 С 4 н/о н/о +22.9 +19.3 80 +29 +29 очень
душно
1017.4 1016.1
13 14.08 СЗ 4 н/о н/о +23.6 +18.3 72 +28 +28 душно 1017.8 1016.5 +30.0
15 14.08 З 8 н/о н/о +22.5 +16.5 69 +27 +27 душно 1017.8 1016.5
16 14.08 З 5 н/о н/о +22.6 +15.2 63 +26 +26 жарко 1018.0 1016.7
18 14.08 З 4 н/о н/о +21.9 +14.3 62 +25 +25 комфорт 1017.3 1016.0
19 14.08 ЮЗ 4 н/о н/о +21.8 +14.2 62 +25 +25 комфорт 1016.8 1015.5
21 14.08 Ю 1 н/о н/о +20.8 +14.5 67 +25 +25 комфорт 1016.8 1015.5
22 14.08 ЮЗ 3 н/о н/о +20.8 +14.2 66 +24 +24 комфорт 1017.3 1016.0
00 15.08 З 3 н/о н/о +21.6 +13.0 58 +24 +24 комфорт 1018.8 1017.5
01 15.08 З 4 н/о н/о +22.5 +12.4 53 +25 +25 комфорт 1019.3 1018.0 +20.1
03 15.08 З 5 н/о н/о +23.1 +12.4 51 +26 +26 жарко 1018.8 1017.5
04 15.08 З 5 н/о н/о +24.3 +11.9 46 +26 +26 жарко 1018.0 1016.7
06 15.08 З 6 н/о н/о +26.5 +9.4 34 +27 +27 жарко 1016.3 1015.0
07 15.08 З 6 н/о н/о +26.8 +6.8 28 +26 +26 жарко 1015.8 1014.5
09 15.08 СЗ 7 н/о н/о +24.7 +12.0 45 +26 +26 жарко 1015.8 1014.5
10 15.08 СЗ 5 н/о н/о +23.7 +12.0 48 +25 +25 комфорт 1016.1 1014.8
12 15.08 З 6 н/о н/о +20.9 +12.8 60 +23 +23 комфорт 1017.3 1016.0
13 15.08 З 5 н/о н/о +19.9 +11.9 60 +21 +21 комфорт 1017.8 1016.5 +28.0
15 15.08 ЮЗ 4 н/о н/о +18.5 +10.8 61 +19 +19 1018.1 1016.8
16 15.08 ЮЗ 4 н/о н/о +17.6 +10.7 64 +17 +17 1017.9 1016.6
18 15.08 ЮЗ 4 н/о н/о +16.8 +4.5 44 +16 +16 1017.2 1015.9
19 15.08 ЮЗ 4 н/о н/о +15.4 +3.9 46 +15 +15 1016.9 1015.6
21 15.08 ЮЗ 3 н/о н/о +15.6 +3.7 45 +15 +15 1017.1 1015.8
22 15.08 ЮЗ 1 н/о н/о +12.2 +3.2 54 +13 +13 1017.6 1016.3
00 16.08 ЮВ 4 н/о н/о +21.1 +9.0 46 +22 +22 комфорт 1018.9 1017.6
01 16.08 ЮВ 8 н/о н/о +22.6 +9.4 43 +24 +24 комфорт 1019.2 1017.9 +12.2
03 16.08 ЮВ 7 н/о н/о +26.1 +7.2 30 +26 +26 жарко 1019.1 1017.8
04 16.08 ЮВ 5 н/о н/о +26.9 +6.3 27 +26 +26 жарко 1018.4 1017.1
06 16.08 В 4 н/о н/о +27.9 +7.7 28 +27 +27 жарко 1016.6 1015.3
07 16.08 С 6 н/о н/о +27.6 +8.5 30 +27 +27 жарко 1016.3 1015.0
09 16.08 С 6 н/о н/о +26.0 +9.4 35 +26 +26 жарко 1016.6 1015.3
10 16.08 СЗ 3 н/о н/о +23.7 +8.2 37 +24 +24 комфорт 1016.8 1015.5
12 16.08 З 5 н/о н/о +21.4 +13.1 59 +24 +24 комфорт 1018.2 1016.9
13 16.08 ЮЗ 4 н/о н/о +20.4 +11.6 57 +22 +22 комфорт 1018.5 1017.2 +28.9
15 16.08 ЮЗ 3 н/о н/о +18.5 +8.5 52 +19 +19 1018.9 1017.6
16 16.08 ЮЗ 4 н/о н/о +17.1 +7.2 52 +17 +17 1018.7 1017.4
18 16.08 З 3 н/о н/о +17.7 +6.3 47 +18 +18 1018.1 1016.8
19 16.08 Ю 2 н/о н/о +13.0 +4.7 57 +13 +13 1017.8 1016.5
21 16.08 Ю 2 н/о н/о +11.6 +4.3 61 +11 +11 1017.6 1016.3
22 16.08 штиль 0 н/о н/о +10.9 +3.2 59 +11 +11 1018.3 1017.0
00 17.08 штиль 0 н/о н/о +17.4 +6.0 47 +17 +17 1019.7 1018.4
01 17.08 ЮВ 5 н/о н/о +23.2 +5.2 31 +23 +23 комфорт 1020.5 1019.2 +10.3
03 17.08 В 4 н/о н/о +26.8 +3.3 22 +25 +25 комфорт 1020.4 1019.1
04 17.08 В 5 н/о н/о +27.4 +1.0 18 +25 +25 комфорт 1019.9 1018.6
06 17.08 С 5 н/о н/о +27.5 +3.9 22 +26 +26 жарко 1018.0 1016.7
07 17.08 С 5 н/о н/о +28.0 +4.3 22 +27 +27 жарко 1017.4 1016.1
09 17.08 С 5 н/о н/о +26.4 +5.4 26 +26 +26 жарко 1017.7 1016.4
10 17.08 СЗ 3 н/о н/о +23.2 +4.7 30 +23 +23 комфорт 1017.9 1016.6
12 17.08 З 3 н/о н/о +20.1 +8.4 47 +22 +22 комфорт 1019.7 1018.4
13 17.08 ЮЗ 3 н/о н/о +18.5 +11.1 62 +19 +19 1020.4 1019.1 +29.6
15 17.08 ЮЗ 4 н/о н/о +17.5 +11.1 66 +17 +17 1020.2 1018.9
16 17.08 С 2 н/о н/о +13.6 +9.1 74 +13 +13 1020.5 1019.2
18 17.08 ЮВ 3 н/о н/о +13.5 +5.9 60 +13 +13 1020.2 1018.9
19 17.08 ЮВ 4 н/о н/о +12.7 +1.7 47 +11 +11 1020.0 1018.7
21 17.08 ЮВ 5 н/о н/о +17.0 +0.2 32 +16 +16 1020.2 1018.9
22 17.08 ЮВ 6 н/о н/о +17.1 +0.7 33 +16 +16 1020.8 1019.5
00 18.08 В 8 н/о н/о +19.1 -1.4 25 +18 +18 1022.4 1021.1
01 18.08 В 12 н/о н/о +21.2 -2.0 21 +21 +21 комфорт 1022.8 1021.5 +12.4
03 18.08 В 10 н/о н/о +24.6 -1.3 18 +23 +23 комфорт 1022.8 1021.5
04 18.08 В 10 н/о н/о +25.6 -2.1 16 +24 +24 комфорт 1021.7 1020.4
06 18.08 В 7 н/о н/о +27.7 -4.3 12 +25 +25 комфорт 1020.2 1018.9
07 18.08 ЮВ 7 н/о н/о +27.6 -5.5 11 +25 +25 комфорт 1019.7 1018.4
09 18.08 ЮВ 7 н/о н/о +26.0 -6.7 11 +23 +23 комфорт 1019.8 1018.5
10 18.08 ЮВ 5 н/о н/о +23.5 -6.5 13 +22 +22 комфорт 1020.4 1019.1
12 18.08 В 5 н/о н/о +15.9 -5.8 22 +15 +15 1022.0 1020.7
13 18.08 В 6 н/о н/о +18.0 -5.9 19 +18 +18 1022.4 1021.1 +28.0
15 18.08 В 5 н/о н/о +14.3 -5.4 25 +13 +13 1022.8 1021.5
16 18.08 В 6 н/о н/о +15.9 -5.2 23 +15 +15 1023.2 1021.9
18 18.08 ЮВ 8 н/о н/о +16.5 -4.7 23 +15 +15 1023.4 1022.1
19 18.08 В 7 н/о н/о +15.2 -5.2 24 +14 +14 1023.2 1021.9
21 18.08 ЮВ 6 н/о н/о +14.8 -5.5 24 +13 +13 1023.4 1022.1
22 18.08 ЮВ 8 н/о н/о +15.5 -5.5 23 +14 +14 1024.1 1022.8
00 19.08 ЮВ 11 н/о н/о +18.1 -4.5 21 +17 +17 1025.0 1023.7
01 19.08 В 12 н/о н/о +19.6 -4.6 19 +18 +18 1025.1 1023.8 +14.0
03 19.08 В 11 н/о н/о +23.1 -4.9 15 +21 +21 комфорт 1024.2 1022.9
06 19.08 ЮВ 8 н/о н/о +26.0 -5.6 12 +23 +23 комфорт 1021.4 1020.1
07 19.08 ЮВ 9 н/о н/о +26.7 -5.0 12 +24 +24 комфорт 1020.8 1019.5
09 19.08 ЮВ 8 н/о н/о +25.7 -6.9 11 +23 +23 комфорт 1020.8 1019.5
10 19.08 В 6 н/о н/о +23.6 -7.4 12 +21 +21 комфорт 1021.2 1019.9

 

Местоположение метеостанции Роборн аэропорт (Западная Австралия, Австралия): широта -20.75 долгота 117.15 высота над уровнем моря 11 м.

В архиве по умолчанию представлена погода в Роборн аэропорту за последнюю неделю. Архивные данные за месяц целиком и за предыдущие месяцы, начиная с января 2011 года, Вы можете получить, выбрав интересующий диапазон дат из раскрывающегося списка и нажав кнопку "Ввод!".


*Определитесь, кто Вы:
робот инопланетянин человек

Внимание! Время в таблицах - всемирное. Для получения местного времени необходимо прибавить поправку, которая равна 8 ч.

Смотрите также архив погоды в соседних городах и на ближайших метеорологических станциях:

Погода в Каррате (Западная Австралия, Австралия) (40 км)
Погода в Марди (Западная Австралия, Австралия) (132 км)
Погода в Порт-Хедленде Apardoo (Западная Австралия, Австралия) (160 км)
Погода на Острове Варанас (Западная Австралия, Австралия) (165 км)
Погода в Барроу-Айленд (Западная Австралия, Австралия) (183 км)
Погода в Онслоу (Западная Австралия, Австралия) (234 км)
Погода на Острове Тевенард (Западная Австралия, Австралия) (234 км)
Погода в Марбл-баре (Западная Австралия, Австралия) (274 км)
Погода в Параберду (Западная Австралия, Австралия) (276 км)
Погода в Лермонте (Западная Австралия, Австралия) (358 км)

Пояснения к столбцам:

Ветер - указаны скорость ветра в м/с - средняя за 10 мин, порывы в срок и между сроками (в фигурных скобках) и направление, откуда дует ветер: С - северный, СВ - северо-восточный, В - восточный, ЮВ - юго-восточный, Ю - южный, ЮЗ - юго-западный, З - западный, СЗ - северо-западный.
Видимость - горизонтальная дальность видимости в метрах или километрах. При видимости от 1 до 10 км при отсутствии осадков обычно наблюдается дымка, при ухудшении видимости до 1 км и менее - туман. В сухую погоду видимость может ухудшаться дымом, пылью или мглою.
Явления - указаны атмосферные явления, наблюдавшиеся в срок или в последний час перед сроком; фигурными скобками обозначены явления, наблюдавшиеся между сроками (за 1-3 часа до срока); квадратными скобками обозначены град или гололедные отложения с указанием их диаметра в мм.
Облачность - указаны через наклонную черту общая и нижняя облачность в баллах и высота нижней границы облаков в метрах; квадратными скобками обозначены формы облаков: Ci - перистые, Cs - перисто-слоистые, Cc - перисто-кучевые, Ac - высококучевые, As - высокослоистые, Sc - слоисто-кучевые, Ns - слоисто-дождевые, Cu - кучевые, Cb - кучево-дождевые. Подробнее классификацию облаков см. в Атласе облаков (PDF).
T - Температура воздуха - температура, измеренная на высоте 2 м над землей.
Td - Температура точки росы - температура, при понижении до которой содержащийся в воздухе водяной пар достигнет насыщения.
f - Относительная влажность воздуха - влажноcть воздуха, измеренная на высоте 2 м над землей.
Te - Эффективная температура - температура, которую ощущает одетый по сезону человек в тени. Характеристика душности погоды. При расчете учитывается влияние влажности воздуха и скорости ветра на теплоощущения человека.
Tes - Эффективная температура на солнце - температура, которую ощущает человек, с поправкой на солнечный нагрев. Характеристика знойности погоды. Зависит от высоты солнца над горизонтом, облачности и скорости ветра. Ночью, в пасмурную погоду, а также при ветре 12 м/с и более поправка равна нулю.
P - Атмосферное давление - приведенное к уровню моря атмосферное давление.
Po - Атмосферное давление - измеренное на уровне метеостанции атмосферное давление.
Tmin - Минимальная температура - минимум температуры воздуха на высоте 2 м над землей.
Tmax - Максимальная температура - максимум температуры воздуха на высоте 2 м над землей.
R - Количество осадков - Количество выпавших осадков за период времени, мм. При наведении курсора мыши на число - период времени, за который выпало указанное количество осадков.
R24 - Количество осадков - Количество выпавших осадков за 24 часа, мм.
S - Снежный покров - Высота снежного покрова, см. При наведении курсора мыши на число - состояние снежного покрова и степень покрытия местности в баллах.